This is the latest recevied weather packets stored in our database for station/object KI6SYE. If no packets are shown the sender has not sent any weather packets the latest 10 day(s).
| Time | Temp. | Humidity | Pressure | Rain* | Wind** | Luminosity | Snow |
|---|---|---|---|---|---|---|---|
| 1778027336 | 17.22° C | 75% | 1014.2 hPa | 0 mm | - | 133 W/m² | - |
| 1778027032 | 17.78° C | 75% | 1014.2 hPa | 0 mm | - | 358 W/m² | - |
| 1778026728 | 17.78° C | 74% | 1014.1 hPa | 0 mm | - | 310 W/m² | - |
| 1778026425 | 17.22° C | 74% | 1014 hPa | 0 mm | - | 341 W/m² | - |
| 1778026122 | 17.22° C | 74% | 1014.2 hPa | 0 mm | - | 309 W/m² | - |
| 1778025820 | 17.78° C | 74% | 1014.1 hPa | 0 mm | - | 324 W/m² | - |
| 1778025517 | 17.22° C | 75% | 1014.2 hPa | 0 mm | - | 360 W/m² | - |
| 1778025214 | 16.67° C | 77% | 1014 hPa | 0 mm | - | 269 W/m² | - |
| 1778024911 | 17.22° C | 76% | 1014 hPa | 0 mm | - | 165 W/m² | - |
| 1778024609 | 16.67° C | 77% | 1014.2 hPa | 0 mm | - | 178 W/m² | - |
| 1778024305 | 16.67° C | 77% | 1014 hPa | 0 mm | - | 160 W/m² | - |
| 1778024004 | 17.22° C | 76% | 1014.4 hPa | 0 mm | - | 160 W/m² | - |
| 1778023700 | 17.22° C | 73% | 1014.2 hPa | 0 mm | - | 166 W/m² | - |
| 1778023398 | 17.78° C | 73% | 1014.4 hPa | 0 mm | - | 346 W/m² | - |
| 1778023095 | 17.78° C | 70% | 1014.2 hPa | 0 mm | - | 226 W/m² | - |
| 1778022793 | 18.33° C | 69% | 1014.3 hPa | 0 mm | - | 241 W/m² | - |
| 1778022491 | 17.78° C | 71% | 1014.1 hPa | 0 mm | - | 379 W/m² | - |
| 1778022187 | 18.33° C | 70% | 1014.1 hPa | 0 mm | - | 278 W/m² | - |
| 1778021883 | 18.33° C | 70% | 1014.4 hPa | 0 mm | - | 536 W/m² | - |
| 1778021581 | 18.89° C | 68% | 1014.4 hPa | 0 mm | - | 571 W/m² | - |
| 1778021276 | 18.33° C | 69% | 1014.6 hPa | 0 mm | - | 683 W/m² | - |
| 1778020974 | 17.78° C | 72% | 1014.5 hPa | 0 mm | - | 698 W/m² | - |
| 1778020672 | 17.78° C | 72% | 1014.5 hPa | 0 mm | - | 316 W/m² | - |
| 1778020367 | 17.78° C | 68% | 1014.5 hPa | 0 mm | - | 554 W/m² | - |
| 1778020064 | 18.33° C | 68% | 1014.5 hPa | 0 mm | - | 613 W/m² | - |
* Rain latest hour (hover to see other rain measurements)
** Current wind speed in m/s (hover to see current wind gust speed)